RH
98 96 96 96 94 95 92 95 100 98 100 100 97 95 93 92 92 94 95 96 97 94 89 91 93 92 93 92 93 87 68 61 56 43 35 25 19 17 13 13 12 11 15 19 16 14 13 12 11 9 8 7 6 5 6 7 6 6 8 8 8 7 5 4 4 4 5 5 5 6 6 6 6 7 9 9 8 6 8 11 10 14 18 23 32 44 58 64
94 94 97 97 97 96 93 94 97 97 98 99 99 99 98 95 91 91 92 95 95 92 91 93 94 93 92 90 88 83 76 72 55 34 26 22 19 14 10 11 9 11 16 17 14 12 10 9 9 7 7 6 6 5 6 7 6 7 7 7 7 5 4 4 4 5 5 5 6 6 6 6 6 6 10 13 9 6 7 10 13 19 25 32 40 50 61 65
97 98 99 99 100 99 97 95 95 94 95 97 99 99 100 99 97 94 92 93 92 93 95 93 96 94 89 90 82 76 77 65 43 30 25 22 21 15 11 9 8 13 17 17 13 10 9 8 7 6 6 6 5 5 7 7 6 6 6 7 6 4 5 5 5 5 4 5 6 6 6 5 7 7 11 13 10 7 6 9 15 21 28 38 44 50 62 66
100 100 100 99 99 99 99 98 97 96 96 97 99 99 99 100 98 96 94 92 91 95 96 95 98 92 92 92 75 71 75 53 32 27 24 22 23 19 12 8 12 17 19 19 13 10 9 6 6 6 5 6 5 5 6 6 7 6 5 6 5 4 5 4 5 4 4 5 6 6 6 5 6 8 11 12 12 10 7 9 14 18 24 36 47 52 60 65
100 100 100 99 99 99 98 97 98 98 98 98 99 100 99 98 95 94 96 95 95 94 94 96 91 85 93 88 67 71 69 39 25 27 25 21 20 20 12 9 16 21 22 19 12 9 8 6 6 5 5 6 5 5 5 5 6 6 5 6 4 4 5 5 4 4 5 5 6 6 6 5 5 7 10 12 14 11 8 9 11 14 22 32 44 57 64 68
100 100 100 100 100 99 98 99 99 98 98 98 99 98 98 97 96 98 98 99 96 90 92 92 84 79 78 68 63 74 59 27 22 27 22 16 14 17 11 11 20 24 22 15 10 8 6 6 5 5 6 5 6 6 5 4 5 6 6 5 4 5 5 5 4 5 5 5 6 6 5 6 6 7 10 13 13 12 12 13 11 15 27 32 42 61 66 67
99 100 100 99 99 100 100 99 100 100 99 99 99 98 98 98 99 100 99 98 91 89 91 82 79 75 58 54 63 68 51 25 25 29 19 12 12 14 13 16 23 25 22 12 9 8 6 6 5 5 5 5 6 5 5 4 5 6 5 5 4 5 4 5 5 5 5 5 6 5 5 6 6 8 11 14 13 15 17 19 20 23 34 38 50 76 73 62
99 100 99 99 100 99 100 99 99 99 99 100 99 99 100 99 100 100 99 97 92 91 81 63 64 57 50 62 55 46 39 21 26 29 14 10 12 13 16 20 23 21 17 10 8 7 6 6 5 5 5 5 5 5 5 5 6 6 4 5 5 5 4 5 4 4 5 5 6 5 6 6 6 9 12 15 14 15 16 21 27 26 35 45 57 79 73 60
99 100 100 100 100 99 100 100 100 99 99 100 99 99 99 99 99 98 100 99 92 79 56 47 48 38 53 73 49 30 25 16 27 27 13 14 15 16 20 20 19 16 12 10 9 6 5 6 5 5 5 5 5 5 5 5 6 5 4 4 4 5 4 4 4 5 5 5 6 5 6 6 6 10 13 16 15 15 16 21 30 28 36 46 54 71 65 57
98 99 99 99 100 98 94 91 94 99 100 100 99 99 98 99 99 98 98 88 70 51 36 38 35 34 57 66 45 28 17 15 26 23 17 20 18 21 22 17 15 14 11 10 8 6 6 6 6 6 6 7 6 5 5 5 6 5 5 4 4 5 4 5 5 5 5 5 6 5 6 6 6 10 13 16 14 16 17 22 30 30 38 46 54 72 64 54
98 96 96 99 95 81 71 68 77 91 97 98 99 100 99 99 97 98 95 72 46 36 36 34 29 45 63 51 34 22 13 16 20 20 21 20 19 21 20 15 13 13 10 8 7 6 7 8 7 6 6 6 5 5 6 5 6 6 6 6 5 5 5 6 5 5 6 5 6 5 6 6 7 9 11 14 14 16 18 22 28 27 37 45 50 66 63 55
99 95 92 88 74 56 52 55 61 72 79 82 86 91 94 96 95 94 91 71 46 35 31 25 31 58 65 42 26 16 13 16 15 19 20 19 20 18 15 14 13 13 10 7 7 8 9 9 8 8 7 6 5 6 6 5 6 6 6 7 6 5 5 5 5 5 5 5 6 5 7 7 7 8 9 13 14 15 17 19 25 25 32 39 41 56 58 51
97 98 88 67 47 42 46 47 48 53 58 63 66 72 78 82 81 82 85 73 52 39 27 23 41 67 61 35 17 13 16 16 15 17 16 17 17 14 14 13 14 14 11 8 7 8 9 9 8 9 8 7 7 7 7 6 6 6 5 6 6 6 6 5 5 5 5 6 5 6 8 8 6 7 8 10 11 14 16 17 21 25 30 33 35 47 50 46
96 96 78 47 34 38 41 38 38 41 43 46 48 53 59 60 61 67 73 63 47 37 26 23 46 69 57 29 12 14 19 18 17 16 14 15 12 10 12 11 12 12 10 9 9 9 10 9 9 9 8 7 8 7 7 7 6 6 6 6 6 7 6 5 5 5 6 6 5 6 8 8 6 7 7 7 9 11 14 16 18 23 27 31 34 40 42 41
98 92 63 34 30 35 35 31 31 33 32 32 32 37 45 47 49 55 58 55 44 31 29 41 57 64 46 22 13 16 20 19 16 14 12 13 9 10 10 9 11 9 10 10 9 11 10 10 9 9 8 7 8 7 8 8 6 5 7 7 6 6 7 6 5 5 6 6 5 6 7 7 6 6 7 7 8 9 12 14 17 21 26 33 36 39 39 37
99 90 54 29 30 32 29 26 25 27 26 24 25 32 42 46 45 46 42 41 38 32 46 62 59 52 37 20 16 17 18 18 15 13 12 11 9 9 9 10 10 9 10 10 10 11 9 9 9 9 9 7 7 7 8 8 7 6 7 9 7 6 8 7 6 5 5 6 6 6 7 6 6 7 7 6 7 8 10 12 16 19 25 33 33 38 44 40
98 81 45 28 29 28 23 21 21 22 22 20 25 39 52 52 47 45 34 30 41 51 60 56 38 36 32 19 17 16 14 15 14 13 12 11 10 9 9 9 9 9 10 9 10 10 9 10 9 9 8 8 8 8 10 11 10 8 6 9 9 6 7 7 7 7 6 7 6 6 6 6 7 7 6 7 7 7 9 11 15 16 21 29 29 40 46 42
83 56 34 28 26 22 18 18 20 20 20 20 32 48 52 47 47 52 47 41 54 60 52 42 32 33 27 15 15 14 12 14 13 14 12 12 11 9 9 9 8 9 9 9 10 9 10 10 9 11 10 9 9 8 11 12 10 10 8 10 11 8 7 7 8 8 6 7 7 6 7 6 6 6 6 7 6 7 9 10 14 14 17 23 25 35 39 38
57 35 29 25 19 16 15 16 18 18 18 24 45 60 60 59 60 65 61 49 49 41 30 29 28 26 20 13 14 13 13 14 13 14 13 12 12 10 9 9 8 8 10 11 10 9 10 11 11 13 12 11 11 10 13 12 10 10 9 10 10 8 7 7 8 8 7 8 7 6 8 7 6 7 7 7 7 8 9 10 13 13 14 18 18 25 32 33
41 28 24 17 12 12 14 16 16 17 19 37 67 74 66 62 57 54 48 40 35 25 18 18 15 15 14 11 12 13 14 15 13 12 11 12 11 10 9 9 9 9 10 11 12 11 10 13 14 12 14 16 16 16 16 14 12 12 11 10 9 8 7 5 8 10 9 10 9 7 8 8 7 8 8 7 9 9 9 11 13 13 14 15 14 18 27 31
35 23 17 13 12 10 13 15 16 21 23 43 75 69 44 34 33 33 31 28 24 17 15 14 11 13 13 12 12 12 13 13 11 10 11 12 10 10 10 9 10 11 10 10 14 14 12 14 14 13 17 19 17 18 17 15 15 13 12 11 9 9 8 6 8 10 9 11 10 7 8 9 9 9 9 9 10 10 9 11 12 13 13 12 13 14 21 32
31 21 14 13 12 10 14 15 18 27 32 51 70 52 27 22 26 28 25 23 18 12 14 14 13 13 13 14 13 12 13 12 12 10 10 11 9 10 9 8 10 11 11 11 13 15 14 13 13 15 17 17 17 17 16 16 16 14 11 11 11 8 7 9 12 11 10 11 10 8 9 11 10 8 9 10 10 10 9 10 11 12 12 12 12 13 17 28
30 20 14 13 13 14 17 17 22 33 44 61 61 36 23 24 24 26 27 28 22 14 13 13 12 12 12 14 12 13 14 12 12 10 10 11 10 10 9 8 9 9 12 13 12 14 13 12 13 15 15 16 18 18 18 17 16 15 12 10 10 8 7 11 14 14 12 12 11 11 11 12 11 9 10 12 10 9 10 11 12 11 12 13 11 13 15 20
28 19 14 14 17 21 22 24 33 39 43 52 46 27 23 26 25 27 31 33 26 16 13 12 11 11 12 14 12 13 13 11 10 10 10 10 10 9 9 9 8 9 10 10 11 11 11 12 13 14 15 15 19 21 20 17 14 14 13 11 10 9 9 11 14 17 17 17 15 13 14 14 12 10 11 11 10 11 11 12 14 13 13 14 13 14 16 18
28 20 15 16 22 26 29 36 45 43 38 40 34 25 24 28 29 30 35 38 28 17 14 13 13 12 13 14 13 11 12 11 9 10 9 9 9 9 8 8 9 10 9 8 10 9 10 14 13 13 14 13 17 20 19 18 14 13 14 14 12 10 12 13 16 20 20 19 16 13 15 15 10 9 10 11 12 12 11 11 12 13 13 13 15 16 18 20
31 22 15 20 24 28 38 44 41 36 31 28 26 25 24 28 34 35 41 44 31 18 16 15 14 15 14 13 12 11 14 13 9 10 10 9 9 9 10 9 8 10 9 8 10 9 11 14 11 13 16 14 16 17 16 18 15 13 14 14 13 11 14 16 16 18 18 16 17 16 18 17 11 9 10 11 13 13 11 11 9 9 10 10 11 12 15 18
34 28 19 21 23 34 48 46 34 26 22 22 25 27 25 30 39 41 46 47 33 17 14 13 14 15 14 12 10 13 18 15 10 10 10 10 10 9 11 10 8 9 9 10 13 12 12 14 12 15 17 17 16 14 14 16 15 16 17 14 12 11 13 16 16 17 15 13 18 18 16 18 14 11 11 12 14 13 12 13 11 9 10 10 10 10 11 15
33 32 23 20 22 34 44 44 37 25 20 25 27 26 26 34 42 46 52 51 30 14 13 13 12 12 12 11 11 13 15 12 11 11 9 10 10 9 11 11 8 8 8 11 16 15 14 15 15 15 17 16 14 12 13 15 15 17 18 14 12 11 12 15 16 16 15 15 19 17 15 19 17 11 11 13 15 14 13 14 13 12 11 11 13 14 14 16
30 35 27 20 22 24 25 36 43 30 22 28 28 27 32 38 42 44 51 46 25 12 12 13 11 11 11 10 12 12 11 10 11 11 9 10 10 9 11 10 8 9 8 10 15 16 14 13 12 12 14 14 11 9 10 14 16 16 16 14 12 12 12 15 17 16 17 20 22 19 16 19 17 12 11 15 16 14 12 12 13 15 14 14 16 18 17 16
25 35 29 22 29 31 27 33 37 25 22 30 31 32 35 42 47 48 48 38 22 13 12 12 12 11 10 11 12 11 11 11 10 9 9 10 10 9 9 8 8 10 10 10 12 13 11 10 10 10 11 10 8 9 10 12 14 15 16 13 13 14 14 16 17 17 21 23 22 18 16 18 20 15 10 15 18 15 12 14 16 15 14 15 18 16 14 14
21 32 28 21 34 43 39 35 29 22 26 35 37 35 36 42 47 49 43 28 17 13 11 12 12 10 10 11 12 11 10 10 9 10 10 10 10 10 9 10 10 11 13 13 12 10 10 10 9 9 8 8 8 10 11 11 11 14 15 14 17 20 19 21 20 21 26 25 19 15 14 19 22 15 9 13 17 15 13 15 17 16 15 16 17 14 14 16
18 28 25 18 25 34 35 36 34 32 35 41 42 36 36 39 38 38 33 21 18 17 12 11 11 10 10 10 11 11 10 11 10 9 10 10 11 11 10 12 13 14 16 15 15 14 13 10 8 8 8 8 9 9 10 11 11 14 15 17 23 25 26 29 27 25 26 24 19 15 16 20 19 13 10 14 15 14 14 14 15 17 18 19 17 15 17 19
16 23 25 20 21 30 40 44 44 44 44 45 42 33 33 38 34 29 25 20 20 16 10 10 10 9 10 10 10 9 9 11 10 10 10 9 11 12 10 10 11 15 17 16 17 16 14 11 8 9 9 8 9 9 11 13 13 14 15 19 24 27 31 33 29 25 23 22 19 16 19 21 16 11 12 15 14 13 14 14 16 18 20 21 17 16 18 21
15 20 28 30 26 31 44 49 47 49 50 46 37 30 35 40 32 23 23 21 16 12 11 12 11 9 10 10 10 9 10 12 9 9 10 9 11 13 12 11 9 11 14 15 16 14 14 13 10 10 11 9 8 7 9 11 13 14 12 15 20 23 28 29 25 23 21 21 21 20 22 20 17 18 16 15 14 12 12 14 17 18 19 20 19 18 20 23
17 22 34 46 41 35 41 46 49 53 50 40 30 29 36 37 25 16 18 16 13 13 12 12 11 12 12 10 10 9 10 13 10 9 10 9 11 13 13 13 11 10 12 13 14 13 13 13 10 10 10 9 9 7 7 8 12 13 10 14 18 17 19 22 22 22 21 22 22 21 21 16 17 22 17 13 14 11 12 14 16 18 18 20 21 22 24 27
28 44 51 53 48 44 45 46 51 54 45 34 30 29 28 25 17 11 12 13 13 14 13 13 13 13 14 13 11 10 10 12 11 10 10 8 9 11 12 14 13 11 11 12 14 15 14 11 8 10 9 7 8 8 8 9 11 12 12 16 16 11 14 19 21 23 24 25 22 18 19 16 17 21 15 13 13 11 12 13 14 18 21 23 25 27 28 31
34 50 49 41 37 38 41 44 51 50 38 30 33 31 21 15 11 10 12 13 12 11 13 17 16 14 16 16 14 12 10 10 10 10 10 9 11 12 12 14 14 11 11 13 15 16 17 15 9 9 10 8 8 9 8 8 9 11 13 14 11 9 12 16 21 25 26 27 22 17 18 17 17 19 16 14 14 13 13 11 14 18 20 23 27 30 33 35
40 37 29 29 30 30 37 47 49 40 30 28 30 28 19 12 10 10 11 12 11 11 13 17 18 15 16 17 16 12 10 12 10 10 10 11 15 16 13 15 14 12 13 13 13 14 18 19 12 8 9 9 8 10 10 8 8 9 10 9 11 16 17 16 21 26 28 28 24 19 18 16 15 18 18 16 15 14 13 12 14 17 18 23 28 31 36 39
50 32 23 26 26 29 42 51 43 30 27 29 26 23 16 10 10 10 11 11 10 11 13 14 15 17 16 17 16 12 11 13 11 11 13 12 18 19 13 14 16 13 13 12 12 15 19 22 17 8 8 10 10 11 12 10 8 8 9 8 10 14 16 16 18 21 25 28 26 23 20 17 17 18 17 17 17 15 14 14 14 16 19 24 28 31 37 41
45 26 24 29 29 36 46 44 34 26 28 28 23 19 13 11 11 10 10 11 10 12 14 12 13 17 19 16 14 13 13 13 11 13 14 11 16 20 13 13 16 13 13 12 13 16 18 22 22 14 9 12 14 12 11 10 10 11 13 13 13 13 13 15 16 16 18 23 24 25 24 18 16 15 14 16 18 16 15 15 15 17 22 26 30 33 36 41
31 20 25 31 35 43 43 35 29 25 25 25 20 16 13 14 14 11 11 12 11 11 12 13 15 16 18 16 15 14 13 14 13 12 13 10 12 17 16 15 14 13 14 13 12 16 18 20 23 20 14 14 13 10 10 11 12 13 15 15 15 15 16 19 21 17 15 18 20 23 25 20 16 15 13 14 17 15 14 15 16 19 25 30 34 35 36 39
27 19 27 32 35 39 34 28 25 21 21 21 18 16 16 17 14 12 12 12 12 11 10 13 15 15 17 16 15 14 13 14 13 11 12 10 8 13 17 16 13 12 14 12 12 19 22 21 22 21 17 13 10 9 11 12 12 12 14 14 14 16 17 22 25 23 19 18 17 19 22 22 20 18 15 14 15 14 14 15 17 22 28 33 35 35 36 37
27 19 25 29 28 29 29 27 23 20 21 20 16 16 17 17 15 12 12 12 12 12 12 14 14 15 17 15 15 15 14 16 14 11 11 10 11 16 16 14 13 11 11 10 12 20 24 22 20 17 12 8 7 7 8 9 11 13 14 13 14 15 14 16 19 21 24 23 21 23 24 25 26 21 16 16 15 15 16 15 18 26 31 33 33 34 36 36
21 18 21 24 24 24 27 26 21 19 21 20 18 18 17 15 15 15 14 14 13 15 18 18 17 17 17 16 17 16 15 17 15 12 12 11 14 18 15 14 14 10 13 20 22 24 25 22 19 18 17 16 14 10 9 10 12 14 15 13 13 12 14 18 19 21 27 27 23 24 24 27 33 25 16 17 16 15 17 16 19 29 33 32 33 34 35 36
27 21 17 18 20 21 21 21 22 21 21 22 24 25 20 16 17 18 17 16 15 17 21 20 18 18 16 15 18 16 14 17 17 15 13 12 15 17 14 15 14 10 19 33 30 23 23 23 22 23 26 26 21 16 13 14 15 16 17 14 12 13 18 24 25 26 31 27 22 23 21 24 31 25 17 18 17 17 18 17 19 27 30 30 32 35 35 36
29 25 22 19 17 18 18 18 22 25 23 25 29 27 23 20 19 18 17 18 17 16 19 20 17 18 17 17 21 20 16 15 15 15 14 13 15 16 15 15 13 18 32 36 27 20 23 25 24 24 26 24 20 16 13 15 18 18 19 17 16 17 21 26 29 30 29 25 22 22 21 24 27 23 20 20 18 18 19 18 18 22 26 29 32 33 33 33
26 31 33 32 26 20 19 18 19 22 21 24 29 29 26 24 21 20 17 17 18 17 18 19 17 18 21 22 24 25 20 16 16 16 15 13 12 15 18 15 14 30 42 32 21 22 26 26 26 26 26 21 18 17 14 13 15 16 17 19 19 18 20 25 30 30 28 28 26 22 21 25 24 20 20 20 20 20 20 20 19 21 26 30 30 30 30 31
28 34 33 37 38 28 25 25 22 22 23 23 27 31 31 27 25 27 24 18 17 18 20 23 21 18 18 21 25 28 25 22 22 21 18 16 15 16 20 16 15 28 33 22 18 24 28 28 26 26 25 21 18 17 15 13 14 14 16 19 20 20 21 24 28 28 29 32 30 25 25 28 25 21 19 18 19 19 19 20 20 21 26 27 27 28 27 27
32 35 29 34 38 33 33 32 26 25 27 26 28 31 33 31 28 27 25 23 24 21 19 26 26 18 16 18 21 26 29 29 30 27 24 25 23 22 23 20 17 20 21 19 21 25 30 31 27 25 24 22 18 17 15 14 16 17 17 17 18 19 21 23 25 25 26 29 28 27 32 34 28 23 21 17 17 18 18 20 20 21 25 25 25 25 24 23
41 42 41 41 36 30 31 31 27 27 28 28 30 30 30 32 31 26 22 26 34 32 25 26 25 20 19 18 19 29 37 40 41 38 36 36 32 27 26 23 19 19 19 20 22 26 32 35 29 26 28 25 20 17 16 16 18 19 19 17 18 19 21 22 24 24 26 27 27 30 40 39 28 22 21 18 17 18 18 19 19 20 23 24 24 23 22 21
45 45 50 53 42 28 28 29 26 25 25 29 34 32 31 32 29 28 25 22 29 34 31 30 31 27 22 19 24 35 40 40 41 40 36 35 31 26 25 22 21 22 22 21 22 26 33 35 28 26 31 28 21 19 20 17 18 21 22 21 21 23 24 24 24 24 26 29 31 36 42 37 25 21 23 20 18 18 18 19 19 19 20 23 24 22 21 21
47 46 48 50 41 27 25 26 23 23 29 36 36 31 32 30 23 27 32 25 22 26 26 30 37 33 28 30 36 38 36 33 32 30 26 24 23 21 21 20 20 23 24 24 25 25 30 33 29 28 34 32 23 20 21 23 27 29 27 25 24 22 22 22 21 22 24 26 30 33 33 28 23 24 28 27 23 21 20 20 20 19 21 24 24 22 21 22
Wind_Speed
10 9 9 9 9 9 9 9 9 9 9 9 9 10 10 9 10 10 9 9 9 9 9 9 10 10 11 12 12 13 13 14 14 13 14 13 9 4 3 6 10 13 13 14 13 11 12 13 13 12 11 8 8 8 8 8 7 6 6 8 7 8 9 5 6 3 4 3 3 5 5 4 7 2 3 4 10 13 8 9 9 8 3 8 16 20 22 21
9 9 9 9 9 8 8 9 10 10 10 10 10 10 10 10 10 9 9 9 9 9 9 10 10 10 11 11 12 12 14 16 16 16 15 14 12 9 8 7 11 14 15 15 14 13 12 11 12 11 9 7 7 8 6 7 8 7 7 7 8 9 5 2 4 5 5 6 5 4 4 4 6 4 1 6 10 13 13 11 10 9 7 14 16 16 19 21
10 10 9 9 9 9 9 9 10 10 10 10 10 10 10 10 10 9 9 9 10 10 9 10 10 11 11 11 12 11 13 16 15 12 10 12 13 12 9 10 14 17 17 15 12 14 12 10 12 11 10 8 7 8 6 7 8 8 8 7 8 9 4 2 3 5 5 6 6 5 5 6 4 3 3 7 9 12 14 12 11 12 11 14 14 15 18 21
10 10 10 9 9 9 9 9 9 10 10 10 10 10 10 10 10 9 10 10 10 10 10 10 10 11 11 11 11 9 12 13 7 4 7 8 9 10 11 12 15 18 17 13 10 12 10 8 10 11 11 8 8 8 8 7 7 8 8 9 7 3 4 2 2 5 4 4 7 5 6 7 2 3 6 7 9 9 11 11 12 13 15 16 14 13 14 16
11 11 10 9 9 9 9 9 9 9 10 10 10 10 10 10 10 10 10 10 10 10 10 10 10 10 11 12 9 8 10 6 3 8 6 5 6 9 13 15 17 18 16 12 9 10 9 10 9 10 10 8 9 8 9 10 8 8 7 12 11 4 4 4 2 3 3 5 7 6 7 6 4 5 7 8 9 6 7 11 14 13 15 18 15 14 13 13
12 11 11 10 10 10 10 10 9 10 10 9 9 9 9 9 9 10 10 10 10 10 10 10 10 10 11 11 9 8 9 1 6 5 3 2 5 11 16 16 18 17 14 12 10 9 10 11 10 9 9 9 10 8 11 11 8 8 7 11 12 7 7 4 3 3 3 7 8 6 6 5 7 7 5 9 7 1 2 6 10 10 16 18 16 13 15 16
12 11 11 11 11 10 10 10 10 10 10 9 9 9 9 9 9 10 10 10 10 10 10 10 10 10 11 11 9 10 11 1 7 4 3 1 7 15 17 17 18 15 14 13 11 10 10 10 11 9 8 9 9 10 9 8 7 9 9 8 7 7 8 6 6 6 6 9 6 6 7 5 9 5 4 8 3 4 1 5 6 13 17 14 14 11 14 17
12 11 11 11 11 11 10 10 10 10 10 10 9 9 9 9 9 9 9 10 9 10 9 8 9 8 9 10 9 9 8 2 8 4 3 6 12 18 18 16 15 14 13 14 10 9 9 10 11 8 9 8 6 8 6 5 9 12 12 8 5 7 8 8 8 8 7 7 6 7 8 6 6 2 4 5 5 4 4 8 9 13 13 11 13 14 15 16
12 12 12 12 11 11 11 11 10 10 10 9 9 9 9 8 9 9 9 9 9 9 7 7 8 6 6 8 9 6 1 6 7 5 6 11 15 18 17 14 14 13 12 11 8 9 8 9 10 6 8 5 3 8 7 7 9 10 13 9 6 8 8 9 8 8 8 6 5 7 8 5 3 3 4 5 5 4 7 10 10 10 10 8 9 11 13 16
13 12 12 12 11 11 11 11 11 11 10 10 9 9 9 8 9 9 9 8 8 8 6 7 7 6 8 9 10 4 4 6 6 8 9 12 14 15 15 12 13 13 11 8 8 10 7 6 5 4 7 5 4 7 8 8 3 2 9 8 7 10 8 7 7 9 9 7 6 9 8 5 5 6 3 6 5 6 10 12 12 11 9 9 10 10 11 14
13 12 12 11 11 10 10 10 10 10 10 10 10 9 9 9 9 9 9 8 8 7 6 7 5 6 10 11 9 2 4 4 5 8 10 11 13 13 11 10 11 12 9 7 8 7 4 3 2 4 4 2 5 7 8 8 3 2 7 8 10 12 9 8 8 9 8 7 9 11 7 6 7 7 3 8 6 6 11 14 13 11 11 12 14 13 11 12
13 12 11 10 10 10 9 9 9 10 10 10 10 9 9 9 9 9 8 8 8 7 6 5 4 6 11 11 5 4 6 4 5 7 10 11 11 9 6 8 10 10 7 8 8 5 3 2 4 8 3 1 5 5 6 6 5 6 8 10 11 12 11 11 10 10 10 8 9 10 6 8 10 6 8 8 7 6 9 14 14 13 13 13 14 13 12 12
13 13 11 10 10 9 9 9 9 10 10 10 10 10 9 9 9 8 8 8 7 7 6 4 3 6 11 6 4 7 5 4 5 6 9 10 9 7 5 7 8 7 6 5 5 5 4 3 6 10 5 6 6 1 1 5 7 9 9 9 8 9 10 11 9 10 11 7 8 9 7 9 10 9 8 6 7 8 8 11 13 13 12 13 14 13 12 13
13 13 11 10 10 9 9 9 10 10 9 10 10 10 10 9 8 8 8 7 7 6 5 4 3 6 8 0 8 5 3 4 4 7 9 9 9 7 7 7 7 7 6 4 2 3 5 5 8 9 6 8 5 1 5 7 7 8 9 8 7 8 7 12 9 9 11 7 8 11 7 7 9 12 7 5 6 9 9 9 10 11 11 11 12 11 10 11
13 12 11 11 10 9 9 9 10 10 9 10 10 11 10 9 8 7 7 6 6 5 4 5 5 6 7 2 7 4 4 5 7 9 9 9 10 10 9 9 7 7 6 4 3 3 6 6 8 8 6 6 5 5 8 7 7 7 8 6 7 7 6 11 9 10 11 8 11 13 7 7 9 12 8 5 6 8 9 10 10 11 11 7 6 8 8 8
13 12 11 11 10 9 9 9 10 10 10 9 9 10 8 8 7 6 6 4 3 2 2 6 7 8 7 1 9 7 6 7 8 9 10 10 9 10 10 9 8 7 6 6 4 4 6 7 8 7 4 6 7 8 7 6 7 6 8 6 7 7 7 8 8 11 10 7 12 13 9 6 8 11 8 6 7 8 9 9 10 10 11 10 5 4 5 7
13 12 11 10 9 9 9 9 10 9 9 8 8 7 6 6 6 5 4 3 2 3 6 8 6 6 5 4 9 10 9 8 8 9 10 9 7 7 11 9 7 8 7 7 6 6 7 7 6 5 5 6 6 7 6 7 6 6 7 5 5 8 5 6 8 10 9 7 11 13 11 7 9 10 8 8 8 9 9 9 8 9 10 12 9 7 8 8
12 11 10 10 9 8 9 9 9 9 8 8 6 4 3 4 3 3 3 2 3 5 9 9 6 5 4 8 8 8 9 9 9 9 10 10 7 7 11 8 7 8 7 7 8 8 7 6 6 5 6 6 6 7 6 4 4 6 6 4 5 7 8 4 9 9 10 10 13 12 10 12 8 8 7 9 8 8 9 8 7 9 9 10 11 13 11 8
11 10 9 9 8 8 9 9 9 8 7 5 3 3 3 3 2 5 8 6 6 6 4 5 8 3 2 10 6 6 8 8 9 9 10 11 8 9 10 6 6 8 8 7 8 8 6 5 6 6 7 6 4 4 3 7 8 3 4 6 7 6 8 6 9 6 6 8 12 10 8 14 10 6 7 8 6 7 8 8 7 8 8 9 11 13 13 12
11 9 8 8 8 8 8 8 8 8 6 3 2 4 3 3 3 5 8 9 10 9 6 5 11 5 2 9 7 7 8 8 10 11 12 12 10 10 9 8 8 8 8 6 6 5 4 5 8 6 1 2 3 4 7 8 9 7 5 6 7 5 9 9 8 7 4 5 10 11 9 11 10 6 6 6 6 8 8 9 8 8 8 8 10 10 13 15
10 8 8 7 7 8 7 8 7 6 5 3 3 7 3 4 3 1 2 8 12 11 9 5 8 7 1 4 6 7 8 9 11 11 11 12 12 10 9 9 9 7 9 6 2 2 2 7 8 1 6 6 4 4 5 7 6 7 8 6 7 7 6 5 6 7 4 6 9 10 8 9 10 8 6 5 8 10 10 10 10 10 10 8 10 10 10 13
10 8 8 7 7 8 7 8 6 4 4 3 7 11 3 8 6 5 6 7 9 10 9 6 6 7 3 3 4 5 7 9 10 10 11 12 13 10 8 9 10 7 7 6 3 4 7 9 5 4 5 2 1 3 5 7 8 7 8 7 7 7 5 3 6 6 5 5 9 9 8 9 12 11 8 7 9 10 10 10 10 11 10 9 9 8 8 11
10 7 7 7 7 7 7 7 5 4 5 6 10 10 4 6 6 7 6 7 5 8 9 8 9 9 8 8 7 8 10 9 10 12 12 11 12 10 7 8 10 7 6 7 7 7 5 4 4 7 3 2 3 5 6 7 8 8 8 8 7 8 8 2 5 6 4 4 9 9 6 6 9 9 8 9 10 8 6 7 9 10 10 9 9 8 8 10
10 7 6 6 6 6 5 4 4 6 8 10 12 8 5 5 7 9 6 7 5 7 8 7 9 9 8 5 8 13 11 5 8 12 14 12 10 7 8 9 9 7 7 9 10 10 5 4 7 5 2 5 7 6 8 7 7 9 9 9 8 8 8 5 3 4 4 6 8 9 7 6 9 12 11 10 9 7 6 8 9 9 9 9 8 7 6 8
10 7 6 5 6 5 4 3 6 8 9 11 13 6 3 5 6 8 5 6 5 7 7 7 7 6 5 5 8 11 8 4 5 7 14 13 9 5 7 6 6 8 8 7 7 10 4 6 5 3 4 7 8 7 9 8 7 8 10 10 11 9 6 5 4 5 6 7 8 8 8 7 10 14 12 8 8 9 9 11 12 11 11 9 8 7 7 7
11 7 5 5 5 4 3 3 4 6 9 10 7 2 3 5 5 6 4 5 4 7 8 9 9 6 7 8 10 8 8 7 4 4 10 10 7 5 5 4 5 7 3 3 5 6 2 5 3 4 6 9 8 9 9 8 8 7 5 8 10 10 7 8 8 7 7 5 5 7 8 7 7 8 8 8 9 11 10 10 11 11 11 10 9 9 8 7
13 7 6 6 5 5 3 3 4 6 7 4 1 1 5 5 4 4 4 5 4 7 8 9 7 6 8 8 11 8 5 7 7 6 8 8 6 6 7 6 6 5 2 3 5 3 4 4 3 5 8 9 7 9 7 8 8 4 1 5 9 10 9 9 9 8 8 5 5 8 9 8 6 5 6 7 9 10 10 9 10 9 9 9 6 5 5 4
16 7 6 7 7 8 7 8 9 9 4 3 2 5 5 4 4 3 4 4 4 5 5 6 5 5 6 6 10 8 1 6 7 9 9 8 8 7 7 8 7 4 6 6 3 1 4 5 5 8 9 7 9 9 7 8 8 2 1 6 8 10 10 9 9 8 8 7 6 9 9 8 8 6 6 8 9 10 10 10 9 7 6 5 3 2 2 2
20 9 7 8 7 9 11 10 11 10 6 5 5 6 4 4 5 4 5 4 4 4 2 4 5 8 8 8 11 9 4 6 5 7 10 9 9 8 6 6 7 2 6 8 5 2 4 4 5 8 8 7 11 8 5 6 7 1 3 8 8 9 9 8 8 8 7 7 8 9 8 7 7 5 6 8 9 11 9 7 6 5 4 2 2 1 1 1
21 12 6 8 6 7 9 11 13 12 7 5 5 6 5 5 4 6 5 3 4 6 5 4 6 10 12 11 10 10 10 8 3 7 9 8 10 9 6 3 5 5 6 8 8 3 4 4 3 6 8 8 9 6 1 4 7 4 5 9 9 8 7 6 6 7 7 7 10 11 10 8 6 6 6 5 3 4 5 7 5 5 4 3 2 0 0 2
20 12 5 9 7 5 7 6 6 7 5 5 7 6 6 5 4 6 4 1 3 7 8 7 8 10 13 13 9 9 11 9 7 9 9 7 9 9 7 5 5 6 7 7 8 6 6 8 6 7 8 8 8 6 5 8 8 7 8 8 7 6 6 6 6 6 7 8 9 9 9 8 7 7 3 4 4 1 4 7 6 4 2 3 3 3 4 5
19 12 5 10 9 8 9 4 4 3 4 6 7 6 6 5 6 7 4 2 3 7 8 8 9 10 13 13 10 10 10 8 9 10 10 8 9 8 7 6 4 6 7 5 6 6 7 10 9 8 7 7 9 8 7 8 8 8 8 7 6 6 5 6 6 6 8 7 3 4 6 7 7 7 2 6 7 5 3 3 5 4 2 4 3 4 5 5
17 11 5 9 10 10 10 7 6 5 5 7 7 6 5 6 7 6 4 4 3 4 5 5 8 10 11 11 9 9 9 7 9 10 9 7 7 7 6 4 4 5 4 3 4 5 7 9 10 8 6 7 9 8 6 6 7 9 8 6 6 5 6 8 7 6 7 5 2 1 3 5 7 5 4 8 7 7 6 4 5 5 4 3 3 4 4 5
16 10 5 8 11 11 10 9 8 6 6 7 6 6 7 8 6 4 5 6 2 3 5 5 7 10 10 9 8 8 7 6 9 9 7 7 7 6 6 5 6 6 4 4 5 5 6 5 6 5 4 6 9 10 7 4 5 8 8 7 7 6 6 7 6 6 6 3 4 3 2 5 6 1 4 6 7 7 7 8 6 5 4 3 3 4 5 6
15 9 5 8 11 11 10 9 8 7 7 7 6 7 8 7 7 6 6 6 4 6 7 7 9 11 10 8 7 8 6 5 8 8 7 8 7 6 6 4 4 5 5 5 2 3 8 4 6 5 2 4 8 8 8 8 5 6 7 8 7 6 6 6 6 6 4 4 4 5 4 4 2 5 5 6 8 8 8 8 8 6 5 4 4 4 5 6
11 5 5 9 11 9 9 8 6 7 7 6 6 8 8 7 7 5 3 4 5 7 8 9 10 10 9 7 7 10 8 5 7 8 7 7 5 4 5 2 1 4 5 5 2 2 7 4 7 6 6 7 6 4 5 7 5 3 5 7 7 6 6 7 7 4 2 6 7 6 7 5 3 7 8 8 9 9 9 9 8 7 7 5 4 5 5 7
9 6 7 10 11 8 8 8 7 8 7 6 7 7 7 7 6 4 2 1 4 6 7 8 7 8 8 7 7 10 10 7 8 7 6 6 3 3 6 3 1 4 4 4 5 3 5 5 2 6 9 7 3 6 7 8 8 6 5 4 5 7 6 5 6 4 5 8 7 7 9 8 6 5 8 11 10 9 9 9 8 7 7 6 6 6 7 7
11 9 10 10 9 6 7 8 8 9 7 6 9 9 9 8 5 3 3 3 6 7 8 7 5 6 8 7 7 9 9 7 8 7 6 6 4 3 5 4 3 3 3 3 5 2 2 6 7 8 8 5 4 7 9 9 11 10 8 5 5 6 6 5 6 6 7 8 6 8 10 9 7 4 8 11 11 10 10 9 9 9 7 7 7 8 8 8
11 9 7 7 7 6 8 9 8 8 7 7 9 8 9 9 5 2 2 5 8 7 8 9 7 6 8 8 7 8 8 7 7 6 6 6 3 2 3 2 3 3 1 4 5 1 1 6 6 5 5 3 3 6 8 8 10 11 10 8 6 6 6 6 5 5 7 8 7 8 9 6 5 4 7 10 11 11 11 9 9 8 7 7 6 7 8 7
9 7 2 7 6 7 10 9 8 7 7 8 9 7 7 8 5 3 2 5 7 6 7 9 8 7 8 9 9 7 7 7 7 6 6 5 4 4 3 2 3 3 1 4 5 3 2 5 6 6 5 5 5 6 7 7 6 7 8 8 8 7 6 6 6 7 7 8 7 7 8 5 2 0 4 7 9 10 10 9 7 8 9 8 7 8 8 8
7 6 2 7 6 9 10 7 7 7 7 8 9 10 7 4 4 4 3 5 6 6 6 8 7 6 7 8 8 7 6 6 7 7 6 6 6 4 2 1 3 2 1 5 5 3 4 5 6 7 7 7 7 3 4 8 7 6 6 6 6 6 6 7 8 7 7 8 8 7 8 5 1 2 2 4 7 9 10 9 8 9 10 9 9 9 8 9
7 5 4 7 6 10 9 7 7 7 8 7 8 9 3 2 5 5 4 6 8 7 5 6 8 7 6 6 6 7 7 6 8 7 6 7 5 2 4 4 1 2 2 6 4 2 2 4 6 8 8 10 12 6 3 6 9 10 9 8 8 7 6 8 8 7 6 8 8 8 9 4 3 1 3 5 5 7 8 8 9 9 10 10 9 9 9 9
6 3 6 8 6 8 8 8 8 7 8 7 7 6 2 3 7 5 4 7 7 6 6 5 6 7 7 6 6 6 6 5 8 7 5 5 1 8 7 5 2 2 4 6 4 3 2 4 7 8 8 11 15 12 9 7 8 11 11 9 10 10 9 9 9 8 7 8 8 8 8 3 3 1 1 1 3 5 6 7 9 9 9 10 10 10 9 9
5 4 3 7 7 8 8 7 8 8 8 9 9 7 5 5 6 5 5 6 5 4 5 5 5 5 5 5 5 8 6 5 7 6 5 5 3 9 6 5 1 6 3 3 3 2 1 5 6 7 8 7 9 11 10 9 7 7 9 11 13 13 12 10 10 8 8 11 11 9 9 3 2 1 2 4 4 6 7 8 10 10 8 9 9 9 9 9
5 5 3 4 7 8 8 6 7 8 7 8 9 8 8 6 3 5 6 3 2 3 4 4 3 3 5 5 5 8 8 5 5 5 4 5 3 7 4 4 3 6 2 7 6 3 3 6 5 6 8 7 7 7 4 4 5 5 8 12 14 11 10 9 8 8 9 12 12 11 9 3 4 4 4 5 6 8 8 8 9 9 9 9 8 8 8 8
4 3 3 3 5 6 7 5 7 8 7 6 7 8 10 8 5 3 5 4 3 4 5 4 4 5 7 6 6 8 9 8 8 6 5 6 4 6 4 4 3 1 7 6 4 5 5 6 8 10 10 9 10 10 9 8 7 8 10 12 11 9 9 9 8 9 10 10 11 11 11 8 5 7 7 6 7 8 8 7 7 7 9 9 8 8 7 7
4 2 2 2 2 4 5 4 5 7 6 6 5 5 9 10 5 4 5 4 2 4 5 5 6 7 7 7 7 8 9 9 9 8 7 8 4 5 5 3 3 4 5 1 4 4 5 7 10 13 14 14 15 16 17 15 14 13 13 14 13 13 13 11 10 11 12 10 11 11 12 12 10 9 8 7 7 8 7 6 7 6 8 8 8 9 8 8
3 2 3 4 3 2 2 1 3 5 4 4 4 4 7 10 8 5 4 3 2 4 5 4 6 8 8 7 7 7 9 9 8 8 8 8 6 3 5 6 6 8 5 6 5 3 6 8 10 13 15 16 17 17 17 17 16 16 16 17 17 17 17 16 14 16 14 12 12 13 13 13 11 10 9 7 7 8 8 8 7 7 8 8 9 9 9 8
4 2 4 4 4 2 4 4 5 6 4 2 2 3 6 9 8 5 3 3 4 4 3 4 6 7 6 6 6 6 7 8 8 8 6 5 7 6 5 6 6 7 6 8 5 3 4 7 9 12 14 15 16 17 17 17 17 18 19 19 19 19 20 19 18 19 18 17 17 18 17 16 11 10 12 10 6 6 7 7 8 8 9 9 9 9 9 9
5 4 5 6 4 2 3 4 5 5 4 2 2 2 4 6 6 4 2 3 3 2 3 6 7 5 4 5 6 3 4 5 3 3 3 4 5 5 6 7 5 5 7 8 6 3 3 5 7 9 11 13 15 16 17 18 18 19 20 21 20 20 20 20 19 18 18 18 18 17 15 13 10 10 13 13 11 11 11 11 10 10 11 11 11 11 10 10
8 4 4 6 3 2 3 3 3 5 3 1 1 1 2 3 3 2 1 3 3 1 3 5 4 3 5 7 4 2 6 7 4 3 3 4 5 4 5 5 5 5 7 7 6 4 4 6 8 9 10 11 12 15 17 18 19 20 21 21 21 19 18 17 17 16 15 15 16 15 12 10 9 9 11 13 14 15 15 14 13 12 12 13 13 12 10 9
11 6 5 6 3 2 3 3 2 3 1 3 3 3 2 2 2 1 1 2 2 3 4 4 4 4 6 4 1 4 6 6 5 4 4 5 6 6 6 5 5 6 7 7 6 6 6 7 8 8 9 11 13 15 15 14 15 15 13 14 18 19 19 19 19 18 18 15 14 13 12 11 9 8 9 11 13 14 13 12 12 11 11 12 12 11 10 9
Wind_Direction
327 326 322 321 319 318 316 312 312 309 305 303 301 300 298 299 297 297 296 294 300 297 295 291 292 298 296 301 299 304 314 304 293 267 243 242 252 261 247 224 209 198 181 193 205 201 203 212 218 212 220 219 217 236 207 205 233 225 231 239 241 244 246 254 252 303 351 280 68 40 14 322 298 301 230 228 233 242 219 204 199 183 161 97 106 124 145 155
326 325 322 318 316 316 317 318 316 312 309 306 302 299 297 295 296 295 294 293 293 293 294 291 293 296 295 299 298 311 317 299 282 267 248 242 250 248 245 230 203 187 182 199 205 205 208 207 208 206 218 222 209 215 197 196 219 226 233 235 240 249 257 359 318 341 326 306 355 348 326 317 299 312 261 240 230 219 217 204 178 170 121 95 110 135 150 151
324 322 319 316 315 313 312 313 310 310 310 307 303 299 296 294 295 292 292 294 291 292 291 290 294 293 294 299 301 316 316 294 274 256 227 225 239 240 228 205 192 181 188 205 208 208 219 218 205 206 219 224 208 196 194 191 204 227 240 241 238 254 285 32 306 293 290 309 311 292 311 296 283 308 272 261 244 215 214 200 181 184 149 125 135 154 157 154
322 319 317 315 315 313 310 308 305 308 307 305 301 297 296 295 294 292 290 290 287 289 288 291 292 292 298 301 307 318 304 283 261 155 155 206 234 226 205 190 185 184 201 223 223 215 230 233 208 212 223 226 211 204 217 193 190 223 229 246 251 278 290 265 261 262 271 289 283 288 289 278 309 304 261 259 252 219 214 201 194 194 162 147 145 152 159 159
320 317 316 313 313 313 311 309 308 309 306 305 303 300 300 296 293 292 288 287 285 282 284 288 288 292 299 301 310 307 287 271 117 108 133 232 240 205 190 185 182 186 209 227 220 214 222 224 212 216 227 234 214 204 231 205 203 241 229 250 267 313 279 256 254 258 280 272 263 263 270 292 319 267 246 250 250 228 224 204 202 195 153 147 151 155 165 172
319 317 315 313 312 311 310 308 309 307 303 302 302 301 300 297 294 289 286 286 284 282 284 287 289 294 298 300 304 283 266 285 81 92 91 272 220 181 179 179 178 190 216 220 206 206 211 214 211 214 222 235 221 208 231 210 202 247 235 237 255 271 267 273 273 258 259 252 249 261 286 316 280 253 225 243 243 204 243 189 192 164 130 140 150 160 171 172
319 317 315 314 311 310 308 306 306 303 301 300 299 298 297 298 293 288 286 283 282 284 284 285 290 295 303 304 288 252 245 298 66 74 57 124 173 165 171 172 178 200 219 214 202 205 209 210 212 214 221 228 226 218 220 204 201 242 252 238 237 250 259 268 259 249 240 243 249 270 281 265 257 258 193 225 182 109 112 119 124 113 120 143 145 168 185 168
318 315 313 312 311 309 307 306 305 302 300 300 300 299 297 297 296 292 286 281 280 281 281 285 291 296 315 315 283 240 234 31 72 94 91 129 151 157 167 171 188 209 212 207 204 211 210 211 217 217 226 229 226 219 191 201 223 231 248 253 238 243 249 247 242 240 237 239 243 250 258 247 254 272 193 197 126 138 176 129 107 106 129 158 153 174 186 164
317 315 314 312 311 309 306 305 302 300 299 298 299 298 296 295 295 294 287 283 280 280 280 282 290 305 320 303 278 256 147 59 85 123 126 139 152 161 171 179 195 207 207 208 211 221 215 211 223 226 246 260 226 220 196 214 233 220 234 249 245 243 240 234 231 232 231 228 230 230 235 225 206 224 186 132 107 160 168 133 120 125 143 158 160 179 177 159
316 316 313 312 312 309 306 304 302 300 298 296 295 294 293 289 291 293 289 286 283 281 278 279 295 316 298 271 265 273 81 75 108 138 145 151 157 170 188 189 190 205 209 206 209 221 228 223 227 237 264 276 221 224 215 223 264 220 237 255 252 255 246 233 234 228 224 214 221 229 222 177 168 220 201 117 129 169 157 140 135 141 153 172 174 184 180 160
317 313 312 311 309 305 302 302 303 300 298 297 295 292 291 289 287 287 286 287 286 281 276 285 310 309 286 270 270 301 95 102 119 148 162 163 168 179 198 192 188 209 202 187 206 217 249 259 226 235 255 248 204 218 223 233 294 253 245 259 243 248 242 226 231 222 219 202 208 232 214 157 184 209 159 128 153 179 157 145 143 149 166 185 177 176 182 165
316 312 310 306 301 298 298 301 299 295 296 295 293 293 291 290 286 281 283 285 285 281 277 291 321 311 287 273 269 75 97 121 120 149 167 172 182 187 196 190 195 216 199 184 196 200 250 254 227 246 260 203 214 212 217 224 259 243 242 255 230 224 223 215 216 207 213 192 187 231 214 179 201 165 117 135 161 185 166 152 156 167 173 182 177 173 178 168
314 312 308 301 297 295 294 294 292 293 295 294 294 292 287 286 283 279 278 277 280 282 281 289 312 294 280 275 103 97 101 125 131 151 166 178 192 196 196 196 205 225 229 217 183 177 232 238 246 268 281 248 239 93 178 215 241 239 231 250 237 218 206 195 202 194 203 178 163 224 226 190 185 128 117 147 168 184 176 160 163 168 169 180 180 173 175 167
313 309 305 297 295 293 290 289 292 295 297 300 298 293 289 282 276 274 270 272 275 276 283 296 301 276 267 193 100 128 148 134 164 166 167 181 183 178 181 189 199 206 224 254 193 187 249 254 253 270 259 253 284 54 223 224 228 231 221 227 236 235 180 165 184 191 193 157 168 221 238 206 162 125 136 159 177 197 181 163 173 176 167 180 177 163 172 169
312 308 303 295 293 290 286 287 291 294 297 300 297 298 295 281 273 265 264 268 274 289 314 295 266 253 259 164 128 163 170 175 194 178 170 178 170 160 167 176 183 189 203 233 228 219 252 249 244 255 220 221 267 240 222 218 211 223 225 210 227 240 152 152 176 199 206 167 186 222 239 214 160 131 146 165 187 209 197 171 184 187 156 163 174 150 164 165
314 308 299 293 290 285 284 285 286 289 294 294 295 298 292 281 272 260 264 257 266 315 313 273 236 233 278 100 137 168 193 193 181 172 176 185 181 160 159 172 178 188 204 221 233 236 241 240 247 271 251 203 225 237 231 217 200 211 232 216 218 218 158 159 180 198 216 179 187 220 247 228 140 130 153 173 194 202 212 192 185 192 159 161 174 134 155 159
314 306 297 292 285 280 283 282 281 285 291 294 299 298 290 284 265 253 272 245 261 273 247 273 269 242 276 105 148 182 193 177 160 172 180 195 215 165 161 179 183 187 203 212 223 233 231 232 235 246 246 233 234 244 239 226 203 193 229 237 225 236 209 167 169 186 201 202 203 207 240 248 130 137 164 174 204 200 210 209 188 204 183 162 156 165 177 164
315 305 297 289 282 282 281 279 282 285 290 293 294 298 308 303 277 254 255 204 221 238 243 260 269 264 213 164 173 177 171 163 165 180 178 188 217 183 179 194 185 187 203 207 210 218 215 217 233 228 219 225 230 234 231 252 249 192 206 235 211 245 271 195 145 169 190 212 230 203 223 247 175 155 179 176 209 210 205 212 200 216 201 170 174 179 172 160
316 305 298 288 281 279 277 277 280 281 288 295 303 326 336 320 287 242 228 208 198 220 253 200 202 279 126 162 162 131 148 160 169 186 184 184 197 199 207 223 206 202 212 201 188 205 217 209 228 237 224 209 207 247 310 340 330 308 222 245 221 209 241 212 120 128 207 217 238 215 209 245 226 194 203 182 205 229 209 203 206 224 212 196 201 182 168 177
318 308 300 288 279 274 274 274 272 280 284 278 298 285 270 262 238 209 208 215 225 252 299 182 194 248 113 149 143 127 148 169 187 198 191 185 194 205 211 219 215 214 232 223 164 183 240 239 230 232 232 50 37 0 348 339 334 323 285 265 258 224 216 213 130 115 245 247 240 226 211 245 245 219 216 187 204 233 218 202 204 218 217 211 217 199 181 177
324 314 299 286 280 272 267 266 267 279 270 230 257 262 288 358 334 343 252 231 227 240 265 227 216 257 276 128 147 158 167 181 197 199 185 187 202 209 197 206 219 213 225 230 139 130 243 250 243 236 50 39 13 351 330 308 296 279 268 259 250 242 231 217 137 135 201 245 250 234 222 253 250 228 225 201 213 230 219 206 206 209 214 214 216 217 190 160
329 315 298 284 275 267 259 263 261 264 256 205 240 253 312 20 356 340 324 265 220 212 237 235 233 249 222 182 180 192 211 195 189 181 173 188 206 210 181 192 231 221 192 201 214 206 220 241 229 102 61 37 342 292 273 268 266 255 251 253 245 234 232 119 120 161 191 232 254 238 220 242 245 232 218 205 219 228 218 210 209 206 210 214 210 216 206 176
332 317 297 282 274 264 256 260 252 242 230 210 242 262 335 14 342 324 301 278 233 191 213 214 212 212 191 194 181 197 225 201 178 171 170 195 211 219 212 208 232 229 182 199 228 237 233 227 140 109 93 226 217 234 242 245 246 245 241 246 246 232 236 202 145 193 218 245 274 277 249 243 250 235 209 210 222 219 208 210 214 212 208 213 216 210 211 204
335 320 297 283 277 264 261 266 250 244 223 223 253 282 343 342 326 323 294 273 249 183 197 202 209 213 184 164 171 202 232 213 188 169 163 200 211 204 235 239 232 232 224 215 222 247 265 81 101 114 152 225 231 216 228 246 235 230 238 249 258 246 252 269 164 180 227 238 258 275 265 243 242 232 214 208 212 208 201 204 207 210 207 208 221 222 219 222
339 320 297 281 277 264 272 271 241 236 220 232 253 262 309 316 324 323 301 265 233 167 178 190 207 213 157 141 176 209 244 227 218 160 156 204 223 191 226 241 238 235 225 205 217 247 255 89 113 185 205 228 242 227 220 242 252 231 220 237 267 274 264 253 197 185 235 232 209 228 249 246 235 229 221 201 197 211 206 201 200 194 197 199 204 215 221 228
343 316 292 267 265 249 246 262 229 229 231 238 241 220 294 314 329 308 284 257 210 156 166 183 190 178 158 180 185 210 241 202 192 142 161 212 245 258 243 195 222 254 240 181 240 256 136 113 175 202 228 232 236 245 223 218 257 259 199 207 249 267 252 239 231 220 249 252 168 200 251 263 241 227 217 195 197 209 198 200 207 193 190 199 197 196 201 204
347 311 279 257 243 217 225 324 322 259 252 243 148 319 300 319 330 288 258 249 204 168 170 167 170 176 172 182 184 208 230 153 150 175 186 208 219 245 247 202 206 233 239 228 246 246 140 156 196 198 230 234 232 246 216 203 249 280 130 200 230 247 236 231 241 237 253 261 167 195 240 263 260 234 197 190 202 205 190 197 214 201 193 199 201 195 193 191
349 316 262 246 231 221 242 302 303 269 283 22 343 298 316 321 290 245 250 250 167 156 179 142 124 183 181 178 202 226 190 146 181 178 173 198 208 220 233 237 242 189 184 225 230 162 175 188 199 210 225 231 242 240 180 195 243 255 270 250 243 245 232 224 239 241 251 260 230 217 229 249 253 228 179 182 210 219 202 197 204 203 200 192 192 204 187 193
348 325 252 236 236 240 250 272 278 274 313 352 307 307 324 292 262 231 257 264 158 154 184 134 140 189 190 183 206 223 204 202 216 141 152 193 216 239 258 259 271 212 181 228 243 173 182 198 214 223 228 230 247 252 152 192 244 277 287 262 253 250 236 227 241 249 252 252 254 245 228 240 255 237 196 189 220 237 214 193 187 177 180 166 151 206 202 195
345 330 251 220 226 248 250 245 248 261 292 314 304 315 294 258 245 233 236 235 186 168 151 160 173 183 190 190 193 204 203 201 170 144 171 191 196 223 263 269 264 252 212 223 244 229 158 173 237 241 244 254 268 291 348 242 267 286 265 247 241 244 241 237 241 254 258 240 243 245 231 234 253 248 223 189 218 253 186 164 157 147 147 121 98 176 333 6
344 334 250 209 207 230 242 231 231 250 276 305 306 295 261 237 235 242 225 200 213 175 161 181 173 168 192 201 189 192 201 189 168 178 187 183 186 202 217 214 227 240 227 216 230 233 187 187 210 217 231 257 270 264 226 233 253 255 246 239 234 233 231 238 237 235 247 248 245 240 225 222 241 257 234 144 135 136 150 157 151 135 108 79 51 22 25 11
341 332 253 214 216 232 251 293 353 305 282 301 294 263 244 235 234 237 214 183 199 176 183 194 181 181 200 209 198 185 194 187 178 195 200 190 190 201 211 208 214 231 233 228 221 224 224 217 207 192 200 234 249 239 209 209 230 237 234 235 238 233 223 234 236 227 239 252 253 230 221 221 244 262 198 137 148 146 144 146 131 122 75 63 46 25 29 15
336 327 263 226 227 232 250 283 306 298 291 286 272 245 242 245 242 240 220 210 164 167 204 191 184 195 198 209 210 186 184 181 182 205 222 216 201 204 220 233 261 264 253 252 234 217 227 218 199 189 185 208 235 239 211 195 216 233 233 231 236 235 235 241 239 234 239 240 226 210 227 239 255 259 147 138 135 128 134 124 106 108 90 67 37 28 34 29
332 318 269 238 237 234 238 256 267 278 282 269 252 230 232 243 248 249 234 233 202 188 208 178 187 201 202 213 206 186 197 190 188 202 207 217 222 210 211 211 234 262 262 248 249 248 256 225 192 199 157 177 225 245 254 250 227 236 241 237 243 248 247 253 257 259 263 248 207 174 186 249 252 213 123 135 138 137 139 130 120 120 111 91 56 41 37 38
326 306 261 241 244 241 236 244 256 259 261 255 243 231 231 240 245 240 233 229 210 198 194 191 208 208 205 214 194 191 225 208 197 214 211 216 227 211 205 190 194 246 261 251 244 256 273 254 168 173 160 194 232 245 265 276 249 237 245 237 241 250 251 261 268 273 299 301 245 199 215 260 188 143 151 149 152 154 147 141 141 136 120 102 78 60 44 43
319 278 234 235 234 228 223 228 232 232 245 252 242 236 234 238 249 260 243 207 219 217 197 197 218 220 209 210 201 196 210 212 204 213 217 222 229 206 201 168 159 252 264 274 291 254 265 256 138 158 211 221 243 262 254 260 261 251 242 243 253 255 256 264 259 233 222 264 259 232 236 244 178 170 172 168 167 159 158 164 155 137 127 115 89 73 58 51
308 248 240 235 216 201 206 211 210 220 243 254 246 247 251 251 257 284 306 238 266 253 225 212 216 231 223 210 218 206 193 201 211 212 221 216 196 190 194 163 202 271 288 292 288 276 270 275 212 218 227 196 208 277 257 247 262 271 254 261 273 258 254 267 263 245 238 252 252 239 244 242 233 208 172 180 189 175 177 178 156 147 141 120 100 88 75 64
298 264 258 233 196 189 203 196 202 224 242 248 245 250 260 263 261 271 278 278 278 256 241 239 218 234 238 219 227 216 190 198 208 214 233 213 164 174 201 178 168 240 302 290 264 255 275 273 259 244 239 185 176 250 256 240 237 250 270 294 286 258 251 251 254 259 260 263 262 253 254 250 249 228 172 190 203 188 186 180 161 162 150 119 107 100 88 76
279 262 251 193 171 190 190 183 205 233 239 241 244 242 247 253 243 250 277 262 262 252 244 245 227 229 243 234 236 224 205 222 225 221 237 222 180 174 216 209 166 175 230 269 269 289 253 267 267 246 234 218 216 235 248 240 222 228 256 269 262 261 269 262 255 259 259 262 267 266 264 257 253 225 177 194 208 193 184 180 170 158 136 119 108 100 92 84
262 258 208 136 153 177 173 187 218 232 233 238 248 250 251 252 226 202 257 259 260 260 261 260 238 225 237 238 241 234 219 233 239 237 237 216 182 171 184 214 199 168 156 253 271 291 253 259 271 264 238 230 244 240 252 266 243 226 241 246 243 247 260 268 262 259 263 267 268 269 267 260 258 201 177 193 203 193 181 179 170 144 127 119 108 101 97 92
260 259 173 124 145 163 169 206 223 226 237 236 245 255 270 289 244 203 203 246 264 263 273 287 275 249 245 242 239 235 231 237 241 244 243 224 210 196 139 123 214 220 207 233 247 260 259 258 261 266 258 246 252 262 292 300 299 278 266 264 259 253 252 260 258 254 260 268 270 275 275 277 29 69 231 219 200 187 180 177 163 139 129 121 113 109 105 102
253 252 140 123 151 167 184 227 223 226 243 238 248 259 281 321 261 236 197 216 243 249 247 271 278 273 265 258 250 242 240 243 244 242 241 243 237 140 100 106 160 279 269 261 277 33 352 287 268 264 263 267 274 278 271 286 291 284 277 276 278 274 265 264 266 271 272 267 269 274 274 284 60 72 254 249 210 182 177 173 156 139 131 127 124 118 111 108
242 242 125 135 177 191 209 237 230 231 241 242 255 257 254 264 252 242 221 215 224 236 234 242 261 265 262 264 268 259 249 251 257 255 251 252 118 95 111 121 132 233 244 268 279 89 96 260 259 263 262 265 269 262 242 238 262 269 264 262 265 264 265 271 277 285 284 272 268 268 266 260 78 38 253 201 180 163 167 171 155 142 136 135 133 126 121 119
280 282 144 146 178 205 225 237 235 236 233 234 242 236 230 254 257 257 250 226 220 238 245 247 254 255 256 262 269 266 260 252 252 249 260 267 111 106 118 111 179 240 237 335 339 88 193 250 247 260 264 255 250 248 240 231 239 259 260 255 254 260 272 280 281 282 272 265 264 265 268 261 122 195 154 134 159 162 167 175 159 150 151 147 141 135 133 129
294 266 225 168 172 206 234 251 260 259 249 241 240 238 232 220 227 277 281 263 264 284 272 266 272 265 258 256 256 261 263 265 255 234 250 269 132 119 126 125 219 256 43 33 350 313 268 268 263 262 263 260 253 253 259 258 257 273 276 262 253 259 278 283 277 270 260 263 265 262 268 265 142 183 186 171 193 188 179 182 172 162 161 155 146 142 140 136
293 259 240 197 180 215 239 256 266 264 265 258 243 240 239 222 183 214 258 253 242 262 266 272 276 261 256 258 255 256 253 245 246 240 246 253 194 134 127 155 210 288 63 48 319 282 265 263 263 263 263 269 276 285 305 314 296 284 287 279 263 256 266 270 267 262 264 273 269 261 270 273 230 216 211 202 218 213 187 187 197 180 163 157 152 149 149 145
304 305 334 317 226 225 227 230 250 252 254 258 250 241 245 242 211 173 215 237 229 246 254 257 259 253 251 254 252 257 257 244 238 242 251 258 232 129 121 197 203 115 99 185 240 248 263 256 254 260 263 268 275 282 288 288 281 278 280 278 271 262 258 257 259 266 275 278 267 265 277 279 271 264 248 218 218 230 219 211 223 201 167 164 163 158 159 156
342 332 19 345 296 265 259 302 305 286 264 246 245 247 250 249 236 200 212 233 215 233 244 241 251 250 246 250 250 249 256 253 245 244 245 253 251 186 162 210 193 144 165 227 215 218 264 259 256 261 262 263 266 270 273 273 273 273 271 270 271 269 264 261 261 266 271 268 268 280 287 282 284 292 277 243 220 237 242 233 234 219 189 181 178 177 179 176
358 359 29 337 301 334 352 333 316 299 292 293 267 249 256 256 244 228 255 260 218 217 250 250 247 251 250 255 260 255 258 261 253 248 253 261 263 256 232 225 197 167 202 236 216 202 268 266 264 268 270 270 269 269 270 271 271 270 267 265 265 264 263 262 261 263 265 265 269 279 283 281 282 287 282 275 271 274 264 244 236 225 208 199 195 200 205 201
353 357 359 320 295 351 347 314 294 277 257 254 268 253 262 268 251 225 266 303 262 233 280 268 250 254 276 265 259 278 341 338 300 278 305 285 263 263 262 262 248 207 216 234 224 201 237 266 273 277 276 274 275 279 276 271 271 272 268 265 263 262 261 261 262 263 264 266 270 276 280 280 280 280 277 273 269 269 265 256 244 229 222 222 221 222 221 215
345 339 329 308 309 349 321 290 278 275 259 221 270 296 282 273 261 230 40 6 341 320 326 310 290 280 269 255 246 23 22 3 356 11 340 284 274 284 279 287 298 266 242 244 242 223 227 265 276 276 271 269 271 274 274 273 273 270 265 263 262 261 261 261 261 262 264 269 274 276 274 272 277 283 282 275 267 261 257 257 254 243 238 238 233 229 227 220
349 341 325 306 304 7 317 284 256 267 316 32 21 3 326 287 274 270 348 23 37 19 1 345 320 283 260 254 343 30 8 344 337 336 313 285 279 282 278 280 290 286 274 267 260 248 248 265 274 271 269 272 272 272 277 280 274 267 268 272 267 262 263 263 260 261 265 267 268 268 267 274 285 292 288 285 280 274 267 266 266 258 247 241 238 236 235 226